YM Initiative — A8HX4 — position and weather

sailwx.info

Track history (hours):
 
Tides and Currents Weather Stations Pressure Air Temp Water Temp Dewpoint Dewpoint Depression Visibility Wind Speed Wind Dir Waves Ship Positions

YM Initiative

Last reported at 2014-Jul-31 05:33 UTC. Time now 2014-Aug-02 08:37 UTC.
Position N 01°12' E 103°55'.

Length 173 m; draft 7.7 m.

Type: Cargo ship. MMSI: 635961368.

Date/timePositionNaut miles runAvg speedWind from/ knotsBaromVisibWave heightAir tempDewpointWater temp
2014-Jul-31 05:33N 01°12' E 103°55'9 0.2
2014-Jul-29 03:30N 01°16' E 103°46'0 0.0
2014-Jul-29 02:33N 01°16' E 103°46'0 0.0
2014-Jul-29 01:27N 01°16' E 103°46'0 0.0
2014-Jul-29 00:33N 01°16' E 103°46'0 0.0
2014-Jul-28 23:33N 01°16' E 103°46'0 0.0
2014-Jul-28 22:33N 01°16' E 103°46'0 0.0
2014-Jul-28 21:33N 01°16' E 103°46'0 0.0
2014-Jul-28 20:33N 01°16' E 103°46'0 0.0
2014-Jul-28 19:33N 01°16' E 103°46'0 0.0
2014-Jul-28 18:33N 01°16' E 103°46'0 0.0
2014-Jul-28 17:33N 01°16' E 103°46'0 0.0
2014-Jul-28 16:33N 01°16' E 103°46'0 0.1
2014-Jul-28 15:33N 01°16' E 103°46'0 0.1
2014-Jul-28 14:33N 01°16' E 103°46'0 0.0
2014-Jul-28 13:33N 01°16' E 103°46'0 0.0
2014-Jul-28 12:33N 01°16' E 103°46'1 0.8
2014-Jul-28 11:33N 01°15' E 103°46'6 5.9
2014-Jul-28 10:33N 01°13' E 103°52'6 5.6
2014-Jul-28 09:33N 01°15' E 103°57'7 6.6
2014-Jul-28 08:33N 01°16' E 104°03'  
2014-Jul-23 08:04N 01°14' E 104°03'916.6
2014-Jul-23 07:33N 01°12' E 103°55'8 8.2
2014-Jul-23 06:33N 01°14' E 103°47'2 1.9
2014-Jul-23 05:22N 01°17' E 103°47'0 0.1
2014-Jul-23 04:28N 01°17' E 103°47'0 0.1
2014-Jul-23 03:31N 01°17' E 103°47'0 0.1
2014-Jul-23 02:28N 01°17' E 103°47'0 0.0
2014-Jul-23 01:31N 01°17' E 103°47'0 0.0
2014-Jul-23 00:31N 01°17' E 103°47'0 0.1
2014-Jul-22 23:31N 01°17' E 103°47'0 0.0
2014-Jul-22 22:28N 01°17' E 103°47'0 0.1
2014-Jul-22 21:31N 01°17' E 103°47'0 0.1
2014-Jul-22 20:31N 01°17' E 103°47'0 0.0
2014-Jul-22 19:28N 01°17' E 103°47'0 0.0
2014-Jul-22 18:31N 01°17' E 103°47'0 0.0
2014-Jul-22 17:28N 01°17' E 103°47'2 1.9
2014-Jul-22 16:33N 01°15' E 103°47'0 0.5
2014-Jul-22 15:33N 01°14' E 103°47'3 3.1
2014-Jul-22 14:31N 01°13' E 103°50'7 7.2
2014-Jul-22 13:33N 01°15' E 103°56'  
Track history (hours):
 
Tides and Currents Weather Stations Pressure Air Temp Water Temp Dewpoint Dewpoint Depression Visibility Wind Speed Wind Dir Waves Ship Positions

YM Initiative

Last reported at 2014-Jul-31 05:33 UTC. Time now 2014-Aug-02 08:37 UTC.
Position N 01°12' E 103°55'.

Length 173 m; draft 7.7 m.

Type: Cargo ship. MMSI: 635961368.

Date/timePositionNaut miles runAvg speedWind from/ knotsBaromVisibWave heightAir tempDewpointWater temp
2014-Jul-31 05:33N 01°12' E 103°55'9 0.2
2014-Jul-29 03:30N 01°16' E 103°46'0 0.0
2014-Jul-29 02:33N 01°16' E 103°46'0 0.0
2014-Jul-29 01:27N 01°16' E 103°46'0 0.0
2014-Jul-29 00:33N 01°16' E 103°46'0 0.0
2014-Jul-28 23:33N 01°16' E 103°46'0 0.0
2014-Jul-28 22:33N 01°16' E 103°46'0 0.0
2014-Jul-28 21:33N 01°16' E 103°46'0 0.0
2014-Jul-28 20:33N 01°16' E 103°46'0 0.0
2014-Jul-28 19:33N 01°16' E 103°46'0 0.0
2014-Jul-28 18:33N 01°16' E 103°46'0 0.0
2014-Jul-28 17:33N 01°16' E 103°46'0 0.0
2014-Jul-28 16:33N 01°16' E 103°46'0 0.1
2014-Jul-28 15:33N 01°16' E 103°46'0 0.1
2014-Jul-28 14:33N 01°16' E 103°46'0 0.0
2014-Jul-28 13:33N 01°16' E 103°46'0 0.0
2014-Jul-28 12:33N 01°16' E 103°46'1 0.8
2014-Jul-28 11:33N 01°15' E 103°46'6 5.9
2014-Jul-28 10:33N 01°13' E 103°52'6 5.6
2014-Jul-28 09:33N 01°15' E 103°57'7 6.6
2014-Jul-28 08:33N 01°16' E 104°03'  
2014-Jul-23 08:04N 01°14' E 104°03'916.6
2014-Jul-23 07:33N 01°12' E 103°55'8 8.2
2014-Jul-23 06:33N 01°14' E 103°47'2 1.9
2014-Jul-23 05:22N 01°17' E 103°47'0 0.1
2014-Jul-23 04:28N 01°17' E 103°47'0 0.1
2014-Jul-23 03:31N 01°17' E 103°47'0 0.1
2014-Jul-23 02:28N 01°17' E 103°47'0 0.0
2014-Jul-23 01:31N 01°17' E 103°47'0 0.0
2014-Jul-23 00:31N 01°17' E 103°47'0 0.1
2014-Jul-22 23:31N 01°17' E 103°47'0 0.0
2014-Jul-22 22:28N 01°17' E 103°47'0 0.1
2014-Jul-22 21:31N 01°17' E 103°47'0 0.1
2014-Jul-22 20:31N 01°17' E 103°47'0 0.0
2014-Jul-22 19:28N 01°17' E 103°47'0 0.0
2014-Jul-22 18:31N 01°17' E 103°47'0 0.0
2014-Jul-22 17:28N 01°17' E 103°47'2 1.9
2014-Jul-22 16:33N 01°15' E 103°47'0 0.5
2014-Jul-22 15:33N 01°14' E 103°47'3 3.1
2014-Jul-22 14:31N 01°13' E 103°50'7 7.2
2014-Jul-22 13:33N 01°15' E 103°56'  

Dump ship's entire track history